User: anonymous   Login
Location: Blanot
(47.1713°N, 4.2340°E)
Time: 07:32:03
(UTC+00:00)
Language:

Cosmos 2061 Rocket - Orbit

View from above orbital plane
View from above orbital plane
View from above satellite
View from above satellite

Ground track
Ground track

The orbit data is extracted from the following two-line orbital elements,

1 20528U 90023B   20273.71731176 +.00000145 +00000-0 +14132-3 0  9992
2 20528 082.9325 256.3901 0030479 290.2048 242.8851 13.72877164529486
Epoch (UTC): 29 September 2020 17:12:55
Eccentricity: 0.0030479
inclination: 82.9325°
perigee height: 967 km
apogee height: 1012 km
right ascension of ascending node: 256.3901°
argument of perigee: 290.2048°
revolutions per day: 13.72877164
mean anomaly at epoch: 242.8851°
orbit number at epoch: 52948

The dashed part of the orbit path shows where the satellite is in the earth's shadow,  

DLR